Weather in Warri

Nigeria     5°31′36″N   5°45′05″E
temp.,
°C
wind,
m/s
gust,
m/s
humid.,
%
clouds,
%
prec.,
mm/h
press.,
hPa
HPBL,
m
13 june, sun
sun1301:00+25s1189100 0.0 101213
04:00+24ese1190100 0.0 101213
07:00+24ese129150 0.0 101453
10:00+29sse2367100 0.0 1015800
13:00+33s225044 0.0 10131653
16:00+34ssw224757 0.0 10101754
19:00+27sw387874 0.3 1011390
22:00+25sw26856 0.0 1013244
14 june, mon
mon1401:00+24s148814 0.0 1012125
04:00+24sw119188 0.0 101117
07:00+25s118912 0.0 101256
10:00+30sw236445 0.2 10131157
13:00+30sw336728 1.7 10121027
16:00+30sw346998 2.3 10101103
19:00+26wsw258797 3.8 1012126
22:00+25wsw249165 0.0 1013110
15 june, tue
tue1501:00+24sw229372 0.0 101243
04:00+24sw119593 1.0 101119
07:00+25ssw139398 1.0 1012101
10:00+30sw3467100 0.0 1013959
13:00+28ese2278100 1.3 101255
16:00+26e2489100 7.6 1011185
19:00+25w3793100 7.9 1011245
22:00+24s1193100 0.0 101229
16 june, wed
wed1601:00+24se0096100 0.0 101315
04:00+23sw009753 0.0 101211
07:00+24wnw0095100 0.0 101341
10:00+29w127098 0.2 1014913
13:00+30wsw236856 3.4 1012998
16:00+28wsw2579100 4.3 1011292
19:00+24w2694100 9.6 1012222
22:00+24wsw3795100 1.7 1013313
17 june, thu
thu1701:00+24wsw289699 1.7 1013398
04:00+23sw1196100 0.0 101215
07:00+24sw119492 0.1 101436
10:00+28sw2477100 1.7 1015852
13:00+28wsw3376100 6.4 1014849
16:00+26wsw3685100 4.5 1013488
19:00+24ssw3794100 7.4 1014273
22:00+24ssw279672 0.0 1015375